When you browse on this site, cookies collect data to enhance your experience and personalize the content and advertising you see.
Visit our Privacy Policy to learn more. By continuing to use the site, you agree to this use of cookies and data.
  • Em Portugal
  • Lista de países
  • Para 7 dias
  • Temperatura da água
  • Mapa do tempo
  • Widgets de tempo
  • user-avatar
    Iniciar Sessão

    Previsão horária em Costa Dourada

    Hoje, 29 Maio, Sexta-feira

    Tempo Temperatura Precipitação Vento Pressão Humidade
    00:00 +17°C° 1.1 mm 2 m/s 761 mmHg 97%
    01:00 +17°C° 1.1 mm 3 m/s 761 mmHg 97%
    02:00 +16°C° 0.5 mm 3 m/s 761 mmHg 97%
    03:00 +15°C° 0.5 mm 4 m/s 761 mmHg 97%
    04:00 +15°C° 0 mm 5 m/s 761 mmHg 97%
    05:00 +15°C° 0.1 mm 5 m/s 761 mmHg 97%
    06:00 +15°C° 0.1 mm 5 m/s 762 mmHg 97%
    07:00 +15°C° 0.1 mm 5 m/s 762 mmHg 97%
    08:00 +16°C° 0 mm 5 m/s 762 mmHg 89%
    09:00 +19°C° 0 mm 5 m/s 762 mmHg 81%
    10:00 +21°C° 0 mm 5 m/s 763 mmHg 73%
    11:00 +21°C° 0 mm 5 m/s 762 mmHg 67%
    12:00 +22°C° 0 mm 5 m/s 762 mmHg 60%
    13:00 +23°C° 0 mm 5 m/s 761 mmHg 54%
    14:00 +22°C° 0 mm 6 m/s 761 mmHg 58%
    15:00 +22°C° 0 mm 6 m/s 761 mmHg 61%
    16:00 +21°C° 0 mm 6 m/s 762 mmHg 64%
    17:00 +19°C° 0 mm 6 m/s 762 mmHg 72%
    18:00 +16°C° 0 mm 5 m/s 762 mmHg 80%
    19:00 +14°C° 0 mm 5 m/s 763 mmHg 88%
    20:00 +14°C° 0 mm 5 m/s 763 mmHg 90%
    21:00 +13°C° 0 mm 5 m/s 763 mmHg 92%
    22:00 +13°C° 0 mm 5 m/s 764 mmHg 94%
    23:00 +13°C° 0 mm 5 m/s 763 mmHg 94%

    Amanhã, 30 Maio, Sábado

    Tempo Temperatura Precipitação Vento Pressão Humidade
    00:00 +13°C° 0 mm 5 m/s 763 mmHg 95%
    01:00 +13°C° 0 mm 5 m/s 763 mmHg 96%
    02:00 +13°C° 0 mm 5 m/s 763 mmHg 96%
    03:00 +13°C° 0 mm 4 m/s 763 mmHg 96%
    04:00 +13°C° 0 mm 4 m/s 763 mmHg 96%
    05:00 +13°C° 0.1 mm 4 m/s 763 mmHg 96%
    06:00 +13°C° 0.1 mm 4 m/s 764 mmHg 96%
    07:00 +13°C° 0.1 mm 4 m/s 764 mmHg 96%
    08:00 +15°C° 0.1 mm 4 m/s 764 mmHg 86%
    09:00 +19°C° 0.1 mm 5 m/s 764 mmHg 76%
    10:00 +21°C° 0.1 mm 5 m/s 764 mmHg 67%
    11:00 +21°C° 0 mm 5 m/s 764 mmHg 63%
    12:00 +22°C° 0 mm 5 m/s 763 mmHg 60%
    13:00 +22°C° 0 mm 5 m/s 763 mmHg 57%
    14:00 +22°C° 0 mm 5 m/s 763 mmHg 60%
    15:00 +21°C° 0 mm 5 m/s 762 mmHg 64%
    16:00 +21°C° 0 mm 5 m/s 762 mmHg 67%
    17:00 +19°C° 0.1 mm 5 m/s 763 mmHg 76%
    18:00 +17°C° 0.1 mm 4 m/s 763 mmHg 85%
    19:00 +15°C° 0.1 mm 4 m/s 763 mmHg 94%
    20:00 +16°C° 0.1 mm 3 m/s 763 mmHg 95%
    21:00 +14°C° 0.1 mm 3 m/s 764 mmHg 95%
    22:00 +14°C° 0.1 mm 3 m/s 764 mmHg 96%
    23:00 +14°C° 0.2 mm 3 m/s 763 mmHg 96%

    Depois de amanhã, 31 Maio, Domingo

    Tempo Temperatura Precipitação Vento Pressão Humidade
    00:00 +14°C° 0.2 mm 3 m/s 763 mmHg 96%
    01:00 +15°C° 0.2 mm 2 m/s 763 mmHg 96%
    02:00 +15°C° 0.2 mm 2 m/s 763 mmHg 96%
    03:00 +15°C° 0.2 mm 2 m/s 762 mmHg 96%
    04:00 +15°C° 0.2 mm 2 m/s 762 mmHg 96%
    05:00 +15°C° 0.1 mm 2 m/s 762 mmHg 96%
    06:00 +15°C° 0.1 mm 2 m/s 762 mmHg 95%
    07:00 +15°C° 0.1 mm 2 m/s 763 mmHg 94%
    08:00 +17°C° 0.1 mm 2 m/s 763 mmHg 90%
    09:00 +18°C° 0.1 mm 3 m/s 763 mmHg 85%
    10:00 +19°C° 0.1 mm 3 m/s 763 mmHg 80%
    11:00 +20°C° 0 mm 3 m/s 762 mmHg 73%
    12:00 +21°C° 0 mm 3 m/s 762 mmHg 66%
    13:00 +22°C° 0 mm 3 m/s 761 mmHg 58%
    14:00 +22°C° 0 mm 3 m/s 761 mmHg 62%
    15:00 +21°C° 0 mm 3 m/s 761 mmHg 65%
    16:00 +20°C° 0 mm 2 m/s 761 mmHg 68%
    17:00 +19°C° 0 mm 2 m/s 761 mmHg 74%
    18:00 +17°C° 0 mm 2 m/s 761 mmHg 81%
    19:00 +15°C° 0 mm 1 m/s 761 mmHg 87%
    20:00 +15°C° 0 mm 1 m/s 761 mmHg 87%
    21:00 +15°C° 0 mm 1 m/s 761 mmHg 87%
    22:00 +15°C° 0 mm 1 m/s 761 mmHg 87%
    23:00 +15°C° 0 mm 1 m/s 761 mmHg 87%

    1 Junho, Segunda-feira

    Tempo Temperatura Precipitação Vento Pressão Humidade
    00:00 +15°C° 0 mm 1 m/s 760 mmHg 87%
    01:00 +15°C° 0 mm 1 m/s 760 mmHg 87%
    02:00 +15°C° 0 mm 1 m/s 760 mmHg 87%
    03:00 +15°C° 0 mm 1 m/s 759 mmHg 88%
    04:00 +15°C° 0 mm 1 m/s 759 mmHg 88%
    05:00 +15°C° 0 mm 1 m/s 759 mmHg 88%
    06:00 +15°C° 0 mm 1 m/s 760 mmHg 87%
    07:00 +15°C° 0 mm 1 m/s 760 mmHg 87%
    08:00 +17°C° 0 mm 2 m/s 760 mmHg 78%
    09:00 +20°C° 0 mm 2 m/s 760 mmHg 70%
    10:00 +23°C° 0 mm 2 m/s 760 mmHg 61%
    11:00 +24°C° 0 mm 3 m/s 759 mmHg 57%
    12:00 +24°C° 0 mm 3 m/s 758 mmHg 53%
    13:00 +25°C° 0 mm 4 m/s 757 mmHg 48%
    14:00 +23°C° 0 mm 4 m/s 757 mmHg 53%
    15:00 +23°C° 0 mm 4 m/s 757 mmHg 57%
    16:00 +22°C° 0 mm 4 m/s 756 mmHg 61%
    17:00 +20°C° 0.1 mm 4 m/s 757 mmHg 71%
    18:00 +18°C° 0.1 mm 4 m/s 757 mmHg 81%
    19:00 +16°C° 0.1 mm 3 m/s 757 mmHg 91%
    20:00 +15°C° 0.2 mm 4 m/s 757 mmHg 91%
    21:00 +15°C° 0.2 mm 4 m/s 757 mmHg 91%
    22:00 +15°C° 0.2 mm 4 m/s 757 mmHg 92%
    23:00 +16°C° 0.1 mm 3 m/s 757 mmHg 90%

    2 Junho, Terça-feira

    Tempo Temperatura Precipitação Vento Pressão Humidade
    00:00 +16°C° 0.1 mm 3 m/s 757 mmHg 88%
    01:00 +16°C° 0.1 mm 3 m/s 756 mmHg 86%
    02:00 +16°C° 0 mm 3 m/s 756 mmHg 85%
    03:00 +14°C° 0 mm 3 m/s 757 mmHg 83%
    04:00 +14°C° 0 mm 4 m/s 757 mmHg 82%
    05:00 +13°C° 0 mm 4 m/s 757 mmHg 79%
    06:00 +13°C° 0 mm 4 m/s 758 mmHg 76%
    07:00 +12°C° 0 mm 4 m/s 758 mmHg 72%
    08:00 +14°C° 0 mm 5 m/s 758 mmHg 62%
    09:00 +15°C° 0 mm 5 m/s 759 mmHg 52%
    10:00 +16°C° 0 mm 6 m/s 759 mmHg 42%
    11:00 +17°C° 0 mm 6 m/s 758 mmHg 37%
    12:00 +17°C° 0 mm 6 m/s 758 mmHg 33%
    13:00 +19°C° 0 mm 5 m/s 757 mmHg 28%
    14:00 +17°C° 0 mm 5 m/s 757 mmHg 32%
    15:00 +17°C° 0 mm 5 m/s 758 mmHg 37%
    16:00 +16°C° 0 mm 5 m/s 758 mmHg 41%
    17:00 +14°C° 0 mm 5 m/s 759 mmHg 47%
    18:00 +12°C° 0 mm 4 m/s 759 mmHg 54%
    19:00 +10°C° 0 mm 4 m/s 760 mmHg 60%
    20:00 +8°C° 0 mm 4 m/s 760 mmHg 64%
    21:00 +8°C° 0 mm 4 m/s 761 mmHg 67%
    22:00 +8°C° 0 mm 3 m/s 761 mmHg 71%
    23:00 +8°C° 0 mm 3 m/s 761 mmHg 73%

    3 Junho, Quarta-feira

    Tempo Temperatura Precipitação Vento Pressão Humidade
    00:00 +7°C° 0 mm 3 m/s 761 mmHg 74%
    01:00 +7°C° 0 mm 2 m/s 761 mmHg 75%
    02:00 +7°C° 0 mm 2 m/s 761 mmHg 75%
    03:00 +7°C° 0 mm 2 m/s 761 mmHg 75%
    04:00 +7°C° 0 mm 2 m/s 761 mmHg 75%
    05:00 +7°C° 0 mm 2 m/s 762 mmHg 74%
    06:00 +8°C° 0 mm 2 m/s 763 mmHg 73%
    07:00 +8°C° 0 mm 2 m/s 763 mmHg 72%
    08:00 +12°C° 0 mm 2 m/s 763 mmHg 65%
    09:00 +15°C° 0 mm 2 m/s 764 mmHg 59%
    10:00 +19°C° 0 mm 3 m/s 764 mmHg 52%
    11:00 +20°C° 0 mm 4 m/s 763 mmHg 51%
    12:00 +21°C° 0 mm 4 m/s 763 mmHg 50%
    13:00 +22°C° 0 mm 5 m/s 763 mmHg 49%
    14:00 +21°C° 0 mm 5 m/s 763 mmHg 53%
    15:00 +20°C° 0 mm 5 m/s 763 mmHg 57%
    16:00 +20°C° 0 mm 5 m/s 763 mmHg 60%
    17:00 +17°C° 0 mm 5 m/s 764 mmHg 69%
    18:00 +15°C° 0 mm 5 m/s 764 mmHg 77%
    19:00 +13°C° 0 mm 5 m/s 765 mmHg 85%
    20:00 +13°C° 0 mm 5 m/s 765 mmHg 86%
    21:00 +12°C° 0 mm 5 m/s 765 mmHg 87%
    22:00 +12°C° 0 mm 5 m/s 766 mmHg 88%
    23:00 +12°C° 0 mm 5 m/s 766 mmHg 90%
    Mostrar mais